This demonstration page uses our WeatherBlox Daily Observations layout. Learn more.

Left ArrowRight Arrow

Hourly Observations for April 8, 2016

Temp ( °F °C ) Dew Point ( °F °C ) Humidity (%) Winds ( mph kmh ) Pressure ( in mb ) Visibility ( mi km ) Precip ( " mm )
12:51 am 00:51 Cloudy with Light Rain 66 18.9 48 8.9 52 52 SE 6 9 29.84 1011 10 16 0.00 0.03
1:51 am 01:51 Mostly Cloudy 64 17.8 50 10 60 60 E 7 11 29.83 1010 10 16 0.00 0.03
2:51 am 02:51 Cloudy with Light Rain 61 16.1 54 12.2 78 78 E 9 15 29.84 1010 10 16 0.00 0.03
3:27 am 03:27 Cloudy 61 16.1 52 11.1 72 72 NNW 17 28 29.88 1012 10 16 0.00 0.03
3:51 am 03:51 Cloudy 59 15 52 11.1 78 78 N 14 22 29.85 1011 10 16 0.00 0.03
4:51 am 04:51 Mostly Clear 58 14.4 51 10.6 78 78 E 3 6 29.86 1011 10 16 0.00 0.00
5:51 am 05:51 Mostly Clear 53 11.7 50 10 89 89 Calm 29.89 1012 10 16 0.00 0.00
6:51 am 06:51 Sunny 57 13.9 53 11.7 87 87 N 3 6 29.91 1013 10 16 0.00 0.00
7:51 am 07:51 Sunny 60 15.6 53 11.7 78 78 Calm 29.91 1013 10 16 0.00 0.00
8:51 am 08:51 Mostly Sunny 62 16.7 52 11.1 70 70 Calm 29.91 1013 10 16 0.00 0.00
9:51 am 09:51 Sunny 71 21.7 48 8.9 44 44 E 9 15 29.90 1013 10 16 0.00 0.00
10:51 am 10:51 Sunny 73 22.8 48 8.9 41 41 S 8 13 29.89 1012 10 16 0.00 0.00
10:58 am 10:58 Sunny with Thunderstorms 72 22.2 48 8.9 43 43 VRB 5 7 29.83 1010 10 16 0.00 0.00
11:13 am 11:13 Mostly Cloudy with Light Rain 70 21.1 47 8.3 44 44 SE 6 9 29.85 1011 10 16 0.00 0.03
11:51 am 11:51 Mostly Cloudy 70 21.1 49 9.4 47 47 S 7 11 29.88 1012 10 16 0.00 0.03
11:58 am 11:58 Mostly Cloudy with Nearby Thunderstorms 69 20.6 46 7.8 44 44 S 9 15 29.85 1011 10 16 0.00 0.00
12:14 pm 12:14 Mostly Cloudy with Thunderstorms 67 19.4 44 6.7 44 44 SSE 15 24 29.85 1011 10 16 0.00 0.03
12:28 pm 12:28 Cloudy with Nearby Thunderstorms 61 16.1 52 11.1 72 72 ESE 9 15 29.91 1013 8 13 0.00 0.03
12:35 pm 12:35 Mostly Cloudy with Light Rain 66 18.9 48 8.9 52 52 SSE 8 13 29.88 1012 10 16 0.00 0.03
12:51 pm 12:51 Partly Cloudy 69 20.6 47 8.3 45 45 E 10 17 29.87 1012 10 16 0.00 0.03
1:51 pm 13:51 Sunny 70 21.1 44 6.7 39 39 Calm 29.86 1011 10 16 0.00 0.00
2:00 pm 14:00 Partly Cloudy with Nearby Thunderstorms 71 21.7 44 6.7 38 38 Calm 29.80 1009 10 16 0.00 0.00
2:23 pm 14:23 Mostly Sunny 68 20 46 7.8 45 45 NNW 21 33 29.83 1010 10 16 0.00 0.00
2:51 pm 14:51 Mostly Cloudy 67 19.4 45 7.2 45 45 NNW 18 30 29.85 1011 10 16 0.00 0.00
3:10 pm 15:10 Cloudy with Nearby Thunderstorms 64 17.8 50 10 60 60 W 20 31 29.85 1011 10 16 0.00 0.03
3:51 pm 15:51 Mostly Cloudy with Light Rain 62 16.7 50 10 65 65 NW 21 33 29.87 1011 10 16 0.00 0.03
4:51 pm 16:51 Cloudy with Light Rain 63 17.2 50 10 63 63 WNW 12 19 29.87 1011 10 16 0.01 0.25
5:51 pm 17:51 Mostly Sunny 61 16.1 53 11.7 75 75 W 6 9 29.88 1012 10 16 0.00 0.03
6:51 pm 18:51 Cloudy with Light Rain 60 15.6 53 11.7 78 78 NNW 7 11 29.87 1012 10 16 0.00 0.03
7:51 pm 19:51 Partly Cloudy 59 15 53 11.7 81 81 SSE 7 11 29.89 1012 10 16 0.00 0.03
8:51 pm 20:51 Clear 57 13.9 51 10.6 81 81 N 3 6 29.91 1013 10 16 0.00 0.00
9:51 pm 21:51 Clear 56 13.3 51 10.6 84 84 Calm 29.91 1013 10 16 0.00 0.00
10:51 pm 22:51 Mostly Cloudy 55 12.8 50 10 83 83 NNE 8 13 29.91 1013 10 16 0.00 0.00
11:51 pm 23:51 Clear 53 11.7 50 10 89 89 S 5 7 29.92 1013 10 16 0.00 0.00

Powered by AerisWeather